Location: Limoges
(45.8500°N, 1.2500°E)
Time: 02:48:20
(UTC+02:00)

ISS - Pass Details

Date: 30 September 2021
Orbit: 417 x 423 km, 51.6° (Epoch: 21 October)

Event Time Altitude Azimuth Distance (km) Brightness Sun altitude
Rises 21:01:20 0° 298° (WNW) 2,366 1.6 -15.5°
Reaches altitude 10° 21:03:28 10° 303° (WNW) 1,501 0.2 -15.8°
Maximum altitude 21:06:47 55° 22° (NNE) 511 -3.5 -16.4°
Enters shadow 21:07:37 41° 74° (ENE) 626 -3.3 -16.5°
